Total_Precipitation_Accumulation
0.50 0.44 0.32 0.30 0.30 0.35 0.41 0.53 0.84 1.14 1.63 2.03 2.14 2.23 2.22 2.22 2.12 1.83 1.59 1.44 1.32 1.19 1.10 0.99 0.85 0.75 0.68 0.67 0.69 0.70 0.77 0.79 0.76 0.73 0.73 0.68 0.65 0.66 0.62 0.57 0.52 0.49 0.45 0.44
0.44 0.39 0.42 0.48 0.48 0.51 0.49 0.59 0.81 1.15 1.70 1.98 2.17 2.20 2.11 2.11 2.02 1.90 1.77 1.64 1.48 1.32 1.19 1.06 0.89 0.79 0.75 0.73 0.73 0.69 0.71 0.72 0.67 0.62 0.62 0.59 0.59 0.54 0.50 0.51 0.52 0.50 0.50 0.48
0.58 0.38 0.59 1.00 0.78 0.69 0.74 0.80 1.04 1.40 1.66 1.62 1.72 1.85 1.93 1.97 1.93 1.87 1.79 1.73 1.63 1.52 1.40 1.22 1.07 0.97 0.92 0.87 0.78 0.73 0.73 0.69 0.66 0.66 0.64 0.59 0.56 0.54 0.51 0.52 0.52 0.52 0.51 0.50
0.66 0.75 1.34 1.33 0.85 0.76 0.86 0.99 0.95 1.10 1.23 1.29 1.35 1.50 1.60 1.66 1.78 1.86 1.85 1.76 1.68 1.55 1.46 1.35 1.21 1.06 0.93 0.81 0.74 0.72 0.72 0.66 0.62 0.62 0.63 0.61 0.63 0.63 0.57 0.53 0.55 0.59 0.58 0.53
0.87 1.19 1.47 1.31 0.86 0.83 1.15 1.41 1.02 0.94 0.96 0.96 1.00 1.21 1.51 1.61 1.72 1.84 1.79 1.72 1.67 1.55 1.46 1.38 1.21 1.04 0.88 0.81 0.73 0.70 0.65 0.59 0.57 0.56 0.59 0.60 0.61 0.62 0.57 0.57 0.61 0.65 0.62 0.61
1.02 1.45 1.76 1.60 0.79 0.55 1.00 1.77 1.11 0.87 0.91 1.02 1.19 1.45 1.46 1.34 1.35 1.54 1.65 1.70 1.66 1.50 1.34 1.23 1.04 0.87 0.79 0.76 0.69 0.66 0.57 0.50 0.48 0.52 0.55 0.54 0.55 0.60 0.60 0.61 0.65 0.64 0.65 0.67
1.15 1.54 1.64 0.95 0.52 0.65 1.50 1.75 1.21 1.04 1.07 1.17 1.38 1.45 1.18 1.05 1.13 1.27 1.42 1.48 1.40 1.31 1.20 1.02 0.83 0.75 0.76 0.69 0.63 0.55 0.48 0.47 0.48 0.52 0.57 0.54 0.55 0.60 0.61 0.60 0.65 0.65 0.61 0.57
1.30 1.64 1.66 0.70 0.53 0.97 1.22 0.96 0.87 0.84 0.82 0.93 0.93 0.87 0.86 0.94 1.07 1.20 1.30 1.26 1.17 1.13 1.03 0.90 0.80 0.79 0.81 0.75 0.61 0.52 0.52 0.51 0.52 0.52 0.43 0.43 0.57 0.61 0.58 0.62 0.66 0.61 0.56 0.53
1.28 1.45 1.15 0.66 0.58 0.63 0.68 0.74 0.69 0.70 0.66 0.71 0.76 0.76 0.79 0.85 0.99 1.08 1.12 1.08 0.97 0.87 0.85 0.84 0.81 0.83 0.84 0.75 0.61 0.59 0.66 0.63 0.57 0.55 0.53 0.57 0.61 0.58 0.56 0.57 0.54 0.44 0.41 0.42
0.91 0.87 0.71 0.59 0.54 0.48 0.46 0.52 0.51 0.52 0.55 0.64 0.76 0.78 0.81 0.79 0.83 0.90 0.91 0.90 0.86 0.80 0.80 0.78 0.74 0.69 0.71 0.64 0.60 0.67 0.72 0.65 0.59 0.60 0.65 0.62 0.57 0.47 0.44 0.40 0.38 0.38 0.35 0.34
1.14 0.91 0.79 0.71 0.57 0.48 0.42 0.39 0.38 0.44 0.48 0.55 0.64 0.67 0.66 0.69 0.71 0.70 0.68 0.70 0.71 0.71 0.67 0.60 0.56 0.53 0.51 0.51 0.55 0.67 0.71 0.67 0.61 0.54 0.53 0.54 0.43 0.31 0.31 0.28 0.24 0.28 0.29 0.28
1.21 0.95 0.98 0.81 0.61 0.51 0.48 0.50 0.48 0.42 0.40 0.42 0.49 0.53 0.54 0.58 0.59 0.55 0.52 0.55 0.58 0.59 0.54 0.49 0.47 0.47 0.45 0.43 0.43 0.57 0.64 0.60 0.52 0.41 0.37 0.33 0.30 0.30 0.24 0.20 0.21 0.23 0.25 0.23
0.88 0.65 0.69 0.65 0.65 0.70 0.67 0.57 0.47 0.38 0.33 0.36 0.37 0.40 0.44 0.47 0.50 0.47 0.46 0.48 0.51 0.54 0.49 0.44 0.42 0.37 0.36 0.38 0.40 0.51 0.55 0.49 0.36 0.26 0.24 0.24 0.27 0.36 0.39 0.30 0.23 0.21 0.19 0.18
0.70 0.64 0.68 0.73 0.78 0.70 0.58 0.43 0.35 0.32 0.29 0.28 0.31 0.36 0.36 0.40 0.47 0.46 0.52 0.50 0.45 0.40 0.38 0.35 0.33 0.32 0.30 0.31 0.38 0.41 0.39 0.30 0.23 0.21 0.18 0.17 0.17 0.25 0.39 0.43 0.38 0.33 0.26 0.20
0.80 0.72 0.65 0.55 0.45 0.46 0.44 0.36 0.31 0.27 0.25 0.25 0.26 0.33 0.31 0.35 0.42 0.41 0.42 0.35 0.30 0.29 0.30 0.27 0.25 0.26 0.25 0.26 0.31 0.31 0.27 0.23 0.19 0.16 0.14 0.14 0.15 0.19 0.25 0.28 0.33 0.36 0.34 0.27
0.72 0.57 0.41 0.35 0.34 0.34 0.32 0.32 0.30 0.25 0.25 0.26 0.26 0.30 0.28 0.29 0.33 0.32 0.29 0.25 0.28 0.32 0.30 0.24 0.23 0.23 0.22 0.23 0.23 0.22 0.20 0.14 0.12 0.11 0.11 0.12 0.12 0.16 0.19 0.21 0.25 0.30 0.31 0.27
0.45 0.41 0.35 0.36 0.31 0.27 0.24 0.23 0.23 0.22 0.23 0.26 0.25 0.24 0.23 0.23 0.27 0.29 0.25 0.24 0.27 0.29 0.24 0.19 0.18 0.16 0.17 0.16 0.15 0.14 0.12 0.10 0.09 0.08 0.09 0.10 0.10 0.13 0.15 0.15 0.17 0.24 0.23 0.19
0.26 0.24 0.23 0.23 0.21 0.20 0.18 0.15 0.15 0.16 0.17 0.17 0.17 0.19 0.22 0.26 0.29 0.26 0.22 0.19 0.19 0.21 0.21 0.19 0.15 0.14 0.11 0.10 0.11 0.09 0.09 0.09 0.05 0.06 0.07 0.07 0.07 0.08 0.09 0.10 0.13 0.16 0.17 0.15
0.17 0.15 0.16 0.16 0.15 0.17 0.15 0.13 0.14 0.15 0.14 0.13 0.13 0.15 0.19 0.21 0.23 0.21 0.20 0.17 0.17 0.20 0.21 0.17 0.12 0.12 0.09 0.07 0.07 0.05 0.05 0.05 0.03 0.03 0.03 0.04 0.04 0.05 0.07 0.08 0.10 0.12 0.12 0.14
0.15 0.14 0.14 0.13 0.12 0.13 0.13 0.12 0.11 0.11 0.10 0.09 0.10 0.13 0.17 0.18 0.16 0.17 0.16 0.16 0.16 0.17 0.16 0.11 0.08 0.10 0.07 0.06 0.04 0.03 0.04 0.05 0.03 0.03 0.03 0.03 0.04 0.05 0.04 0.05 0.06 0.06 0.09 0.13
0.13 0.12 0.11 0.09 0.10 0.11 0.11 0.11 0.09 0.07 0.08 0.09 0.10 0.12 0.15 0.17 0.16 0.16 0.17 0.18 0.18 0.15 0.10 0.08 0.07 0.07 0.06 0.04 0.04 0.03 0.02 0.02 0.02 0.02 0.02 0.03 0.04 0.05 0.04 0.04 0.04 0.05 0.08 0.10
0.14 0.12 0.12 0.11 0.11 0.10 0.10 0.11 0.10 0.08 0.09 0.10 0.11 0.11 0.13 0.13 0.11 0.12 0.13 0.15 0.15 0.12 0.07 0.06 0.05 0.05 0.03 0.03 0.02 0.02 0.02 0.02 0.02 0.03 0.04 0.05 0.05 0.05 0.05 0.06 0.06 0.06 0.07 0.07
0.16 0.12 0.12 0.12 0.14 0.14 0.11 0.09 0.08 0.08 0.08 0.08 0.09 0.10 0.12 0.11 0.10 0.14 0.15 0.12 0.10 0.09 0.06 0.05 0.05 0.04 0.03 0.02 0.02 0.02 0.03 0.03 0.02 0.02 0.05 0.06 0.06 0.06 0.06 0.06 0.07 0.06 0.06 0.07
0.19 0.15 0.13 0.13 0.13 0.18 0.19 0.15 0.14 0.13 0.08 0.08 0.08 0.09 0.11 0.12 0.14 0.13 0.11 0.11 0.10 0.09 0.06 0.06 0.06 0.05 0.05 0.03 0.02 0.02 0.03 0.03 0.03 0.04 0.05 0.05 0.05 0.05 0.05 0.05 0.05 0.05 0.05 0.07
0.21 0.17 0.15 0.16 0.18 0.20 0.20 0.19 0.16 0.12 0.10 0.10 0.09 0.08 0.10 0.11 0.12 0.12 0.09 0.09 0.10 0.09 0.07 0.05 0.04 0.05 0.04 0.03 0.03 0.04 0.04 0.04 0.05 0.05 0.04 0.05 0.05 0.05 0.05 0.05 0.04 0.04 0.06 0.09
0.30 0.29 0.28 0.22 0.19 0.17 0.15 0.15 0.15 0.15 0.14 0.13 0.11 0.10 0.10 0.11 0.09 0.08 0.09 0.09 0.09 0.09 0.07 0.05 0.05 0.05 0.05 0.05 0.06 0.05 0.05 0.05 0.05 0.06 0.06 0.06 0.06 0.05 0.05 0.05 0.05 0.07 0.09 0.11
0.37 0.34 0.34 0.27 0.19 0.15 0.13 0.13 0.14 0.14 0.15 0.15 0.13 0.10 0.09 0.08 0.08 0.09 0.09 0.08 0.07 0.07 0.05 0.05 0.05 0.05 0.06 0.07 0.08 0.07 0.06 0.05 0.04 0.06 0.07 0.07 0.06 0.05 0.06 0.06 0.07 0.08 0.09 0.10